Regional Weather Roundup
Issued by NWS State College, PA

Home | Current Version | Previous Version | Graphics & Text | Print | Product List | Glossary On
Versions: 1 2 3 4 5 6 7 8 9 10 11 12 13 14 15 16 17 18 19 20 21 22 23 24 25 26 27 28 29 30 31 32 33 34 35 36 37 38 39 40 41 42 43 44 45 46 47 48 49 50
000
ASUS41 KCTP 240603
RWRCTP

REGIONAL WEATHER ROUNDUP
NATIONAL WEATHER SERVICE STATE COLLEGE PA
200 AM EDT FRI OCT 24 2014

Note: "fair" indicates few or no clouds below 12,000 feet with no
significant weather and/or obstructions to visibility.

* = STATION THAT DOES NOT REPORT PRECIPITATION /E.G. RAIN...SNOW...ETC/
    THUNDER OR FOG.

PAZ002>004-007>009-013>016-020>023-029>032-240700-
WESTERN PENNSYLVANIA

CITY           SKY/WX    TMP DP  RH WIND       PRES   REMARKS
ERIE           CLEAR     51  44  77 NW3       30.07S
MEADVILLE      CLEAR     42  40  92 W5        30.06S
FRANKLIN*      CLOUDY    43  39  87 N5        30.07F
NEW CASTLE       N/A     39  39 100 CALM      30.10R
BEAVER COUNTY  NOT AVBL
BUTLER*        CLEAR     41  37  87 CALM      30.08F
PITTSBURGH INT PTCLDY    41  40  96 CALM      30.08R
PITTSBURGH     CLEAR     45  39  79 NW5       30.07R
INDIANA*       CLOUDY    46  45  93 NW3       30.08F
LATROBE        NOT AVBL
WASHINGTON CO*   N/A     34  30  86 CALM      30.09S VSB 3/4
$$

PAZ004>006-010>012-017>019-024>028-033>037-041-042-045-046-049>053-240700-
CENTRAL PENNSYLVANIA

CITY           SKY/WX    TMP DP  RH WIND       PRES   REMARKS
BRADFORD       CLEAR     40  38  93 NW7       29.99F
DUBOIS         MOCLDY    45  43  93 W7        30.01S
CLEARFIELD     CLEAR     46  42  86 VRB5      29.99F
JOHNSTOWN      CLOUDY    44  41  89 NW16G26   30.02S
ALTOONA        CLOUDY    49  42  77 NW10      30.00S
STATE COLLEGE  CLEAR     45  41  86 W3        29.97S
WILLIAMSPORT   CLOUDY    56  42  59 NW10      29.90S
SELINSGROVE    CLOUDY    57  42  57 N12       29.90S
FT INDIANTOWN  CLOUDY    57  44  60 NW9G22    29.87S
CAPITAL CITY   CLOUDY    58  41  53 W9        29.89S
HARRISBURG     MOCLDY    57  41  55 NW14G23   29.88S
YORK           MOCLDY    55  40  56 NW15G21   29.89S
$$

PAZ038>040-043-044-047-048-054-055-060>062-067>071-240700-
EASTERN PENNSYLVANIA

CITY           SKY/WX    TMP DP  RH WIND       PRES   REMARKS
SCRANTON       CLOUDY    51  44  77 N7        29.86F
MOUNT POCONO   CLOUDY    45  42  89 NW22G32   29.79F
ALLENTOWN      CLOUDY    53  44  71 NW15      29.83S
QUAKERTOWN*    PTCLDY    52  45  76 N12G21    29.82F
READING        CLOUDY    56  44  64 NW15      29.84S
LANCASTER      CLOUDY    57  41  55 NW10      29.86S
COATESVILLE    CLOUDY    55  45  67 NW14G22   29.84S
POTTSTOWN      CLOUDY    54  44  69 N9        29.84S
BLUE BELL      CLOUDY    54  45  71 NW7       29.81S
DOYLESTOWN     MOCLDY    50  44  80 NW7       29.81S
WILLOW GROVE   NOT AVBL
NORTH PHILA    PTCLDY    54  43  66 NW15      29.82S
PHILADELPHIA   CLOUDY    55  44  66 NW9       29.83R
$$



USA.gov is the U.S. government's official web portal to all federal, state and local government web resources and services.